Location: Arrodets-la-Barthe
(43.0306°N, 0.2829°E)
Time: 11:26:06
(UTC+00:00)

Cosmos 2278 - Pass Details

Date: 05 June 2022
Orbit: 838 x 854 km, 71.1° (Epoch: 01 July)

Event Time Altitude Azimuth Distance (km) Brightness Sun altitude
Rises 02:34:39 0° 349° (NNW) 3,428 7.5 -15.1°
Reaches altitude 10° 02:40:05 10° 31° (NNE) 2,490 7.5 -14.5°
Maximum altitude 02:40:49 10° 38° (NE) 2,474 7.6 -14.4°
Drops below altitude 10° 02:41:33 10° 46° (NE) 2,490 7.6 -14.3°
Sets 02:46:56 0° 88° (E) 3,422 7.5 -13.7°
